Location: Hancock Field Station
(44.9202°N, 120.4259°W)
Time: 18:49:34
(UTC-07:00)

Nadezhda 4 Rocket - Visible Passes

Search period start: 01 September 2014 00:00
Search period end: 11 September 2014 00:00
Orbit: 950 x 993 km, 82.9° (Epoch: 31 August)

Date Brightness Start Highest point End Pass type
(mag) Time Alt. Az. Time Alt. Az. Time Alt. Az.
01 Sep 5.2 00:08:52 33° NE 00:08:52 33° NE 00:12:37 10° NNE visible
01 Sep 5.4 01:53:26 29° NW 01:53:26 29° NW 01:57:40 10° N visible
01 Sep 6.2 22:48:22 11° ENE 22:48:22 11° ENE 22:48:42 10° NE visible
02 Sep 5.0 00:32:57 43° NNE 00:32:57 43° NNE 00:37:02 10° N visible
02 Sep 5.9 02:17:31 19° NW 02:17:31 19° NW 02:21:06 10° NNW visible
02 Sep 5.9 23:12:27 18° NE 23:12:27 18° NE 23:14:48 10° NE visible
03 Sep 5.0 00:57:01 42° NNW 00:57:01 42° NNW 01:01:12 10° N visible
03 Sep 6.3 02:41:36 11° WNW 02:41:36 11° WNW 02:43:10 10° NW visible
03 Sep 5.5 23:36:31 27° NE 23:36:31 27° NE 23:39:44 10° NNE visible
04 Sep 5.4 01:21:06 32° NW 01:21:06 32° NW 01:25:09 10° N visible
05 Sep 5.2 00:00:35 36° NNE 00:00:35 36° NNE 00:04:16 10° NNE visible
05 Sep 5.8 01:45:09 22° NW 01:45:09 22° NW 01:48:45 10° NNW visible
05 Sep 6.0 22:40:03 14° NE 22:40:03 14° NE 22:41:35 10° NE visible
06 Sep 5.1 00:24:38 40° N 00:24:38 40° N 00:28:32 10° N visible
06 Sep 6.2 02:09:12 14° NW 02:09:12 14° NW 02:11:38 10° NNW visible
06 Sep 5.6 23:04:06 22° NE 23:04:06 22° NE 23:06:48 10° NNE visible
07 Sep 5.3 00:48:41 34° NNW 00:48:41 34° NNW 00:52:34 10° N visible
07 Sep 5.3 23:28:08 31° NE 23:28:08 31° NE 23:31:28 10° NNE visible
08 Sep 5.7 01:12:43 25° NW 01:12:43 25° NW 01:16:19 10° NNW visible
08 Sep 6.1 22:07:36 11° NE 22:07:36 11° NE 22:08:08 10° NE visible
08 Sep 5.2 23:52:10 38° N 23:52:10 38° N 23:55:49 10° N visible
09 Sep 6.1 01:36:44 16° NW 01:36:44 16° NW 01:39:35 10° NNW visible
09 Sep 5.8 22:31:37 18° NE 22:31:37 18° NE 22:33:47 10° NNE visible
10 Sep 5.3 00:16:11 36° NNW 00:16:11 36° NNW 00:19:56 10° N visible
10 Sep 5.4 22:55:37 27° NE 22:55:37 27° NE 22:58:37 10° NNE visible
